Terug naar catalogus

STARLINK-30597

ActiefCommunicatieVLEO
NORAD 58078·PAYLOAD·🇺🇸 United States

Gelanceerd Oct 18, 2023 vanaf Cape Canaveral Space Force Station

Loading…

Volgende Passages (komende 24 uur)

TLE

VersSource: CelesTrak SupGP

Epoch: Sep 14, 2026, 22:07 UTC

1 58078C 23160D   26257.92201389  .00047803  00000+0  17315-2 0  2573
2 58078  43.0000  88.9247 0001454 270.8568 302.3830 15.27552508    15

Volg STARLINK-30597 in realtime met AllMySat

Download on the App Store